Miscellaneous Local Product
Issued by NWS North Platte, NE

Home | Current Version | Previous Version | Graphics & Text | Print | Product List | Glossary On
Versions: 1 2 3 4 5 6 7 8 9 10 11 12 13 14 15 16 17 18 19 20 21 22 23 24 25 26 27 28 29 30 31 32 33 34 35 36 37 38 39 40 41 42 43 44 45 46 47 48 49 50
000
AXUS43 KLBF 260910
MISLBF


WESTERN AND NORTH CENTRAL NEBRASKA HOURLY WEATHER ROUNDUP
NATIONAL WEATHER SERVICE NORTH PLATTE NE
300 AM CST WED NOV 26 2014

***STATIONS NOT REPORTING VARIABLES SUCH AS SKY/WEATHER OR
PRESSURE ARE PROVIDED BY THE NEBRASKA DEPARTMENT OF
ROADS...RAWS...AND APRS NETWORKS...AND ARE NOT UNDER
NATIONAL WEATHER SERVICE QUALITY CONTROL***

...OBSERVATIONS IN AND NEAR THE EASTERN PANHANDLE OF NEBRASKA...

CITY           SKY/WX    TMP DP  RH WIND       PRES   REMARKS
PINE RIDGE     CLOUDY    28  21  75 N18G25    30.12R WCI  15
CHADRON        CLOUDY    45  23  42 NW13      30.13R
ALLIANCE       CLOUDY    31  21  66 NW25      30.06R WCI  17
SIDNEY         CLOUDY    29  24  82 N20G28    30.08R WCI  16
WHITECLAY        N/A     26  20  76 W20         N/A  WCI  13
CRESCENT LAKE    N/A     31  20  64 NW20G30     N/A  WCI  19
LISCO            N/A     35  19  53 W23         N/A  WCI  23
BIG SPRINGS      N/A     33  27  80 NW7         N/A  WCI  27
$$

...OBSERVATIONS IN NORTH CENTRAL NEBRASKA...

CITY           SKY/WX    TMP DP  RH WIND       PRES   REMARKS
VALENTINE      CLOUDY    29  21  72 NW25G44   30.02R WCI  14
THEDFORD       CLOUDY    35  25  67 NW25G39   30.00R WCI  22
AINSWORTH      CLOUDY    32  23  71 NW30G38   29.99R WCI  17
O`NEILL        CLOUDY    36  30  79 NW28G35   29.91R WCI  23
ORD            CLOUDY    36  26  67 NW21G29   29.93R WCI  25
BROKEN BOW     CLOUDY    37  24  59 NW23G32   29.97R WCI  26
BROWNLEE         N/A     32  21  64 NW31        N/A  WCI  17
SPRINGVIEW       N/A     33  25  72 W17G37      N/A  WCI  22
BREWSTER         N/A     36  26  65 NW25        N/A  WCI  24
SARGENT          N/A     36  27  68 NW8G17      N/A  WCI  30
COMSTOCK         N/A     39  25  56 NW17        N/A  WCI  30
CHAMBERS         N/A     35  25  68 NW9G17      N/A  WCI  28
EWING            N/A     35  31  85 CALM        N/A
$$

...OBSERVATIONS IN SOUTHWEST NEBRASKA AND FAR NORTHEAST COLORADO...

CITY           SKY/WX    TMP DP  RH WIND       PRES   REMARKS
WRAY           CLOUDY    34  30  86 W16G22    30.12R WCI  24
HOLYOKE        FAIR      34  28  80 NW12G18   30.09R WCI  25
IMPERIAL       CLOUDY    35  23  61 NW16      30.07R WCI  25
OGALLALA       CLOUDY    37  25  63 N21G32    30.06R WCI  26
NORTH PLATTE   CLOUDY    35  27  72 NW17      30.03R WCI  25
MCCOOK         CLOUDY    37  30  75 NW13      30.05R WCI  29
LEXINGTON      CLOUDY    36  31  84 NW13      29.99R WCI  27
PAXTON           N/A     35  28  76 NW10        N/A  WCI  27
BRADY            N/A     34  24  67 SW5G12      N/A  WCI  30
GOTHENBURG       N/A     36  24  61 NW13        N/A  WCI  27
CALLAWAY         N/A     35  23  62 NW17        N/A  WCI  25
$$

...NORTH PLATTE AREA...

CITY           SKY/WX    TMP DP  RH WIND       PRES   REMARKS
AIRPORT        CLOUDY    35  27  72 NW17      30.03R WCI  25
DOWNTOWN         N/A     36  25  64 NW12G23     N/A  WCI  28
$$

...SOME WEATHER OBSERVATIONS FROM AROUND THE REGION...

CITY           SKY/WX    TMP DP  RH WIND       PRES   REMARKS
DENVER         FLURRIES  28  24  85 NE12      30.17R WCI  18
LARAMIE        LGT SNOW  20  18  92 N5        30.06S FOG     WCI  13
CHEYENNE       LGT SNOW  23  17  78 N16       30.09R WCI  10
SCOTTSBLUFF    CLOUDY    31  25  78 NW15      30.12R WCI  20
RAPID CITY     CLOUDY    25  20  81 N24       30.14R WCI   9
PIERRE         CLOUDY    23  19  85 N30G43    30.07R WCI   5
WINNER         CLOUDY    28  24  85 NW30G40   30.00R WCI  12
SIOUX FALLS    LGT SNOW  30  28  92 NE6       29.84R FOG     WCI  24
OMAHA          CLOUDY    38  35  89 NW10      29.85R WCI  31
GRAND ISLAND   PTCLDY    34  26  72 NW13      29.94R WCI  25
KANSAS CITY    FLURRIES  38  28  67 SW22G32   29.95R WCI  27
WICHITA        CLOUDY    40  29  64 W5        29.98R
HAYS           CLOUDY    45  27  49 NW10      30.03R
LIBERAL        CLEAR     37  28  70 N17G23    30.08R WCI  28
GOODLAND       CLOUDY    33  31  92 NW20      30.11R WCI  21
$$



USA.gov is the U.S. government's official web portal to all federal, state and local government web resources and services.